KC9KZ-13 Weather Reports


time (UTC)temp
C
wind
direction
speed
KPH
gust
KPH
rain 1hr
cm
rain 24hr
cm
rain mn
cm
humidity
%
barometer
mb
20260507090945 16 322 4.8 6.4 0.00 0.00 0.00 34 1013.2
20260507083931 16 309 3.2 4.8 0.00 0.00 0.00 34 1013.5
20260507080937 16 334 3.2 4.8 0.00 0.00 0.00 33 1013.7
20260507073932 17 140 3.2 9.7 0.00 0.00 0.00 32 1013.8
20260507070935 17 318 3.2 6.4 0.00 0.00 0.00 34 1013.7
20260507063937 18 286 4.8 8.0 0.00 0.00 0.00 31 1013.7
20260507060930 20 284 4.8 11.3 0.00 0.00 0.00 28 1013.6
20260507053935 20 275 4.8 8.0 0.00 0.00 0.00 28 1013.5
20260507050937 20 291 8.0 11.3 0.00 0.00 0.00 28 1013.3
20260507043940 20 201 3.2 11.3 0.00 0.00 0.00 27 1013.3
20260507040932 21 302 6.4 8.0 0.00 0.00 0.00 27 1013.3
20260507033938 22 254 8.0 9.7 0.00 0.00 0.00 26 1013.1
20260507030936 23 284 6.4 16.1 0.00 0.00 0.00 25 1012.7
20260507024006 24 257 9.7 16.1 0.00 0.00 0.00 24 1012.2
20260507020941 25 268 12.9 20.9 0.00 0.00 0.00 23 1012.2
20260507013935 26 267 11.3 16.1 0.00 0.00 0.00 22 1011.0
20260507004007 26 263 16.1 20.9 0.00 0.00 0.00 22 1010.9
20260507000959 26 305 11.3 19.3 0.00 0.00 0.00 22 1011.0
20260506234007 26 319 4.8 25.7 0.00 0.00 0.00 22 1010.9
20260506230929 26 218 6.4 19.3 0.00 0.00 0.00 22 1011.3
20260506223930 26 121 11.3 27.4 0.00 0.00 0.00 22 1011.4
20260506220958 26 219 11.3 30.6 0.00 0.00 0.00 23 1011.9
20260506213949 26 220 14.5 25.7 0.00 0.00 0.00 22 1012.3
20260506210944 25 11 11.3 29.0 0.00 0.00 0.00 23 1012.9
20260506203932 25 208 3.2 24.1 0.00 0.00 0.00 24 1013.0
20260506200947 25 294 14.5 22.5 0.00 0.00 0.00 24 1013.5
20260506193940 23 227 8.0 17.7 0.00 0.00 0.00 26 1013.7
20260506190949 23 181 9.7 17.7 0.00 0.00 0.00 28 1014.1
20260506183932 22 179 14.5 19.3 0.00 0.00 0.00 28 1014.5
20260506180940 22 117 4.8 19.3 0.00 0.00 0.00 29 1014.8
20260506173943 21 129 4.8 19.3 0.00 0.00 0.00 30 1014.8
20260506170946 21 205 4.8 11.3 0.00 0.00 0.00 34 1014.8
20260506163935 20 160 6.4 14.5 0.00 0.00 0.00 34 1014.8
20260506160953 19 49 1.6 4.8 0.00 0.00 0.00 35 1014.6
20260506153958 18 33 3.2 8.0 0.00 0.00 0.00 36 1014.6
20260506150937 17 76 6.4 14.5 0.00 0.00 0.00 39 1014.6
20260506143941 16 72 8.0 12.9 0.00 0.00 0.00 39 1014.5
20260506140932 14 38 8.0 16.1 0.00 0.00 0.00 44 1014.1
20260506133936 12 15 4.8 8.0 0.00 0.00 0.00 46 1013.8
20260506130939 9 60 0.0 0.0 0.00 0.00 0.00 51 1013.4
20260506123934 10 347 4.8 8.0 0.00 0.00 0.00 51 1012.9
20260506120934 10 342 8.0 14.5 0.00 0.00 0.00 51 1012.9
20260506114001 9 331 8.0 11.3 0.00 0.00 0.00 50 1012.9
20260506110947 9 65 4.8 6.4 0.00 0.00 0.00 50 1012.7
20260506103941 12 300 3.2 6.4 0.00 0.00 0.00 47 1012.5
20260506100941 10 326 4.8 6.4 0.00 0.00 0.00 49 1012.2
20260506094004 10 40 0.0 8.0 0.00 0.00 0.00 48 1012.4